AW673 Weather Reports


time (UTC)temp
C
wind
direction
speed
KPH
gust
KPH
rain 1hr
cm
rain 24hr
cm
rain mn
cm
humidity
%
barometer
mb
20260831054721 20 281 4.8 8.0 0.00 0.00 0.00 69 1030.2
20260831053720 20 199 1.6 4.8 0.00 0.00 0.00 68 1029.9
20260831052719 20 255 1.6 4.8 0.00 0.00 0.00 66 1029.9
20260831051738 20 263 3.2 4.8 0.00 0.00 0.00 65 1030.1
20260831050716 20 274 3.2 6.4 0.00 0.00 0.00 66 1030.0
20260831045745 20 254 3.2 4.8 0.00 0.00 0.00 65 1030.0
20260831044744 20 264 3.2 6.4 0.00 0.00 0.00 64 1030.0
20260831043742 20 252 3.2 6.4 0.00 0.00 0.00 65 1030.0
20260831042741 20 193 1.6 3.2 0.00 0.00 0.00 68 1030.3
20260831041740 20 248 3.2 6.4 0.00 0.00 0.00 66 1030.2
20260831040759 20 153 3.2 6.4 0.00 0.00 0.00 67 1030.3
20260831035737 21 211 4.8 6.4 0.00 0.00 0.00 65 1030.4
20260831034735 21 266 4.8 12.9 0.00 0.00 0.00 63 1030.3
20260831033734 21 216 4.8 6.4 0.00 0.00 0.00 58 1030.3
20260831032733 21 234 4.8 8.0 0.00 0.00 0.00 59 1030.5
20260831031732 21 215 4.8 6.4 0.00 0.00 0.00 60 1030.5
20260831030730 21 211 4.8 6.4 0.00 0.00 0.00 60 1030.6
20260831025728 21 264 4.8 9.7 0.00 0.00 0.00 59 1030.7
20260831024727 21 217 3.2 6.4 0.00 0.00 0.00 62 1030.8
20260831023726 21 226 4.8 8.0 0.00 0.00 0.00 57 1031.0
20260831022725 21 259 3.2 6.4 0.00 0.00 0.00 63 1031.2
20260831021724 21 276 4.8 9.7 0.00 0.00 0.00 63 1031.3
20260831020742 21 224 4.8 6.4 0.00 0.00 0.00 63 1031.5
20260831015721 21 216 4.8 6.4 0.00 0.00 0.00 64 1031.7
20260831014740 20 220 4.8 6.4 0.00 0.00 0.00 65 1031.7
20260831013738 21 273 6.4 8.0 0.00 0.00 0.00 64 1031.9
20260831012717 19 273 4.8 8.0 0.00 0.00 0.00 67 1031.9
20260831011716 22 271 9.7 11.3 0.00 0.00 0.00 62 1031.9
20260831010745 20 255 3.2 6.4 0.00 0.00 0.00 66 1031.9
20260831005744 20 148 1.6 3.2 0.00 0.00 0.00 65 1032.0
20260831004743 20 210 3.2 4.8 0.00 0.00 0.00 64 1032.1
20260831003741 21 145 1.6 1.6 0.00 0.00 0.00 59 1032.1
20260831002741 20 121 1.6 1.6 0.00 0.00 0.00 61 1032.1
20260831001739 21 93 3.2 6.4 0.00 0.00 0.00 61 1032.1
20260831000737 20 186 3.2 4.8 0.00 0.00 0.00 63 1032.2
20260830235736 21 252 4.8 6.4 0.00 0.00 0.00 61 1032.3
20260830234735 18 0.0 3.2 0.00 0.00 0.00 66 1032.2
20260830233734 18 68 3.2 4.8 0.00 0.00 0.00 68 1032.3
20260830232732 18 99 3.2 3.2 0.00 0.00 0.00 69 1032.3
20260830231812 17 106 1.6 4.8 0.00 0.00 0.00 71 1032.3
20260830230730 17 42 3.2 4.8 0.00 0.00 0.00 72 1032.3
20260830225729 17 54 4.8 6.4 0.00 0.00 0.00 74 1032.3
20260830224727 16 60 4.8 6.4 0.00 0.00 0.00 75 1032.4
20260830223725 16 51 3.2 4.8 0.00 0.00 0.00 76 1032.3
20260830222725 16 76 1.6 3.2 0.00 0.00 0.00 77 1032.2
20260830221724 16 95 1.6 3.2 0.00 0.00 0.00 78 1032.2
20260830220722 16 85 4.8 8.0 0.00 0.00 0.00 77 1032.2
20260830215741 15 143 4.8 6.4 0.00 0.00 0.00 82 1032.2
20260830214720 14 111 3.2 6.4 0.00 0.00 0.00 84 1032.3
20260830213718 13 177 3.2 4.8 0.00 0.00 0.00 87 1032.2
20260830212717 12 87 3.2 8.0 0.00 0.00 0.00 91 1031.9
20260830211745 11 110 3.2 4.8 0.00 0.00 0.00 92 1031.9
20260830210743 11 96 4.8 8.0 0.00 0.00 0.00 95 1031.9
20260830205802 10 105 3.2 6.4 0.00 0.00 0.00 96 1032.0
20260830204741 10 102 4.8 4.8 0.00 0.00 0.00 97 1031.8
20260830203740 10 115 4.8 4.8 0.00 0.00 0.00 97 1031.9
20260830202738 9 120 4.8 4.8 0.00 0.00 0.00 97 1031.6
20260830201737 8 104 3.2 4.8 0.00 0.00 0.00 97 1031.6
20260830200736 8 143 1.6 4.8 0.00 0.00 0.00 97 1031.4
20260830195755 8 118 3.2 4.8 0.00 0.00 0.00 97 1031.2
20260830194734 9 132 3.2 6.4 0.00 0.00 0.00 97 1031.2
20260830193732 10 152 3.2 4.8 0.00 0.00 0.00 97 1031.0
20260830192731 10 114 3.2 6.4 0.00 0.00 0.00 97 1030.9
20260830191730 10 99 4.8 6.4 0.00 0.00 0.00 97 1030.8
20260830190729 10 110 3.2 4.8 0.00 0.00 0.00 97 1030.6
20260830185727 9 126 3.2 4.8 0.00 0.00 0.00 97 1030.5
20260830184726 10 116 4.8 6.4 0.00 0.00 0.00 97 1030.7
20260830183725 10 118 3.2 6.4 0.00 0.00 0.00 97 1030.3
20260830182724 10 122 4.8 6.4 0.00 0.00 0.00 97 1030.4
20260830181722 10 135 1.6 6.4 0.00 0.00 0.00 97 1030.4
20260830180742 10 140 3.2 4.8 0.00 0.00 0.00 96 1030.5
20260830175720 10 123 6.4 8.0 0.00 0.00 0.00 97 1030.3
20260830174719 10 136 4.8 6.4 0.00 0.00 0.00 97 1030.5
20260830173718 10 91 6.4 8.0 0.00 0.00 0.00 97 1030.4
20260830172716 10 102 3.2 4.8 0.00 0.00 0.00 97 1030.5
20260830171805 10 112 4.8 6.4 0.00 0.00 0.00 97 1030.5
20260830170744 10 93 1.6 6.4 0.00 0.00 0.00 97 1030.6
20260830165743 9 118 3.2 4.8 0.00 0.00 0.00 97 1030.4
20260830164741 9 117 3.2 4.8 0.00 0.00 0.00 97 1030.5
20260830163801 10 114 8.0 9.7 0.00 0.00 0.00 97 1030.7
20260830162739 10 91 6.4 6.4 0.00 0.00 0.00 96 1030.5
20260830161758 10 125 3.2 6.4 0.00 0.00 0.00 96 1030.6
20260830160737 10 93 4.8 4.8 0.00 0.00 0.00 96 1030.7
20260830155735 10 160 3.2 4.8 0.00 0.00 0.00 96 1030.8
20260830154734 10 171 3.2 4.8 0.00 0.00 0.00 96 1030.9
20260830153733 10 157 1.6 3.2 0.00 0.00 0.00 96 1030.9
20260830152732 10 200 3.2 6.4 0.00 0.00 0.00 96 1031.1
20260830151729 10 154 1.6 3.2 0.00 0.00 0.00 96 1031.0
20260830150728 10 121 3.2 4.8 0.00 0.00 0.00 95 1031.2
20260830145747 10 123 3.2 3.2 0.00 0.00 0.00 95 1031.2
20260830144746 11 131 3.2 3.2 0.00 0.00 0.00 95 1031.1
20260830143725 11 120 3.2 4.8 0.00 0.00 0.00 96 1031.1
20260830142723 11 117 3.2 4.8 0.00 0.00 0.00 96 1031.1
20260830141742 10 118 3.2 4.8 0.00 0.00 0.00 96 1031.4
20260830140721 10 111 3.2 4.8 0.00 0.00 0.00 96 1031.2
20260830135720 10 132 3.2 3.2 0.00 0.00 0.00 96 1031.4
20260830134718 10 131 3.2 3.2 0.00 0.00 0.00 96 1031.3
20260830133717 11 127 3.2 3.2 0.00 0.00 0.00 96 1031.2
20260830132715 11 125 3.2 3.2 0.00 0.00 0.00 96 1031.4
20260830131745 11 106 3.2 4.8 0.00 0.00 0.00 96 1031.4
20260830130744 11 105 3.2 4.8 0.00 0.00 0.00 96 1031.3
20260830125742 11 106 3.2 4.8 0.00 0.00 0.00 96 1031.4
20260830124802 11 111 4.8 4.8 0.00 0.00 0.00 96 1031.5
20260830123740 11 102 3.2 4.8 0.00 0.00 0.00 96 1031.5
20260830122738 11 104 4.8 4.8 0.00 0.00 0.00 96 1031.3
20260830121818 11 122 3.2 3.2 0.00 0.00 0.00 96 1031.5
20260830120736 11 111 3.2 3.2 0.00 0.00 0.00 96 1031.3
20260830115734 12 111 3.2 3.2 0.00 0.00 0.00 96 1031.5
20260830114733 12 101 3.2 3.2 0.00 0.00 0.00 96 1031.6
20260830113732 12 111 3.2 4.8 0.00 0.00 0.00 96 1031.6
20260830112731 12 108 3.2 3.2 0.00 0.00 0.00 96 1031.5
20260830111730 12 119 3.2 3.2 0.00 0.00 0.00 96 1031.4
20260830110728 12 108 3.2 4.8 0.00 0.00 0.00 95 1031.5
20260830105747 12 119 3.2 4.8 0.00 0.00 0.00 95 1031.3
20260830104726 12 117 4.8 4.8 0.00 0.00 0.00 95 1031.3
20260830103725 12 114 3.2 3.2 0.00 0.00 0.00 94 1031.2
20260830102724 12 123 3.2 3.2 0.00 0.00 0.00 94 1031.2
20260830101722 12 120 3.2 3.2 0.00 0.00 0.00 94 1031.1
20260830100721 12 117 3.2 3.2 0.00 0.00 0.00 94 1031.2
20260830095720 12 113 4.8 6.4 0.00 0.00 0.00 93 1031.1
20260830094718 12 126 3.2 3.2 0.00 0.00 0.00 93 1031.1
20260830093717 12 119 3.2 4.8 0.00 0.00 0.00 92 1030.9
20260830092745 13 115 3.2 4.8 0.00 0.00 0.00 92 1030.7
20260830091744 13 117 3.2 3.2 0.00 0.00 0.00 91 1030.7
20260830090743 13 118 3.2 4.8 0.00 0.00 0.00 90 1030.8
20260830085742 14 106 3.2 4.8 0.00 0.00 0.00 90 1030.7
20260830084800 14 103 3.2 4.8 0.00 0.00 0.00 90 1030.5
20260830083739 14 110 4.8 4.8 0.00 0.00 0.00 88 1030.5
20260830082738 15 107 4.8 4.8 0.00 0.00 0.00 87 1030.4
20260830081737 15 107 4.8 4.8 0.00 0.00 0.00 85 1030.2
20260830080735 15 104 3.2 4.8 0.00 0.00 0.00 84 1030.2
20260830075734 16 99 4.8 4.8 0.00 0.00 0.00 82 1030.1
20260830074733 16 108 3.2 4.8 0.00 0.00 0.00 80 1030.0
20260830073731 17 111 3.2 4.8 0.00 0.00 0.00 79 1029.9
20260830072730 17 121 1.6 3.2 0.00 0.00 0.00 77 1029.8
20260830071809 17 0.0 3.2 0.00 0.00 0.00 75 1029.8
20260830070728 18 174 1.6 4.8 0.00 0.00 0.00 73 1029.8
20260830065727 18 344 1.6 3.2 0.00 0.00 0.00 69 1029.7
20260830064725 19 0.0 1.6 0.00 0.00 0.00 68 1029.8
20260830063745 19 274 1.6 3.2 0.00 0.00 0.00 68 1029.7
20260830062723 19 282 3.2 6.4 0.00 0.00 0.00 68 1029.7
20260830061722 19 255 3.2 6.4 0.00 0.00 0.00 69 1029.9
20260830060720 19 301 3.2 9.7 0.00 0.00 0.00 69 1029.6
20260830055719 19 282 4.8 6.4 0.00 0.00 0.00 68 1029.8